owner,sensor,date,latitude,longitude,air_temperature,qcFlag 
COMPS,ioos:station:USF.COMPS:SHP:1,2017-08-01T00:00:00Z,30.0600,-84.2910,28.92,1111122 
COMPS,ioos:station:USF.COMPS:SHP:1,2017-08-01T00:06:00Z,30.0600,-84.2910,28.71,1111122 
COMPS,ioos:station:USF.COMPS:SHP:1,2017-08-01T00:12:00Z,30.0600,-84.2910,28.57,1111122 
COMPS,ioos:station:USF.COMPS:SHP:1,2017-08-01T00:18:00Z,30.0600,-84.2910,28.37,1111122 
COMPS,ioos:station:USF.COMPS:SHP:1,2017-08-01T00:24:00Z,30.0600,-84.2910,28.09,1111122 
COMPS,ioos:station:USF.COMPS:SHP:1,2017-08-01T00:30:00Z,30.0600,-84.2910,27.79,1111122 
COMPS,ioos:station:USF.COMPS:SHP:1,2017-08-01T00:36:00Z,30.0600,-84.2910,27.56,1111122 
COMPS,ioos:station:USF.COMPS:SHP:1,2017-08-01T00:42:00Z,30.0600,-84.2910,27.35,1111122 
COMPS,ioos:station:USF.COMPS:SHP:1,2017-08-01T00:48:00Z,30.0600,-84.2910,27.21,1111122 
COMPS,ioos:station:USF.COMPS:SHP:1,2017-08-01T00:54:00Z,30.0600,-84.2910,27.0,1111122 
COMPS,ioos:station:USF.COMPS:SHP:1,2017-08-01T01:00:00Z,30.0600,-84.2910,26.83,1111122 
COMPS,ioos:station:USF.COMPS:SHP:1,2017-08-01T01:06:00Z,30.0600,-84.2910,26.7,1111122 
COMPS,ioos:station:USF.COMPS:SHP:1,2017-08-01T01:12:00Z,30.0600,-84.2910,26.56,1111122 
COMPS,ioos:station:USF.COMPS:SHP:1,2017-08-01T01:18:00Z,30.0600,-84.2910,26.43,1111122 
COMPS,ioos:station:USF.COMPS:SHP:1,2017-08-01T01:24:00Z,30.0600,-84.2910,26.33,1111122 
COMPS,ioos:station:USF.COMPS:SHP:1,2017-08-01T01:30:00Z,30.0600,-84.2910,26.26,1111122 
COMPS,ioos:station:USF.COMPS:SHP:1,2017-08-01T01:36:00Z,30.0600,-84.2910,26.19,1111122 
COMPS,ioos:station:USF.COMPS:SHP:1,2017-08-01T01:42:00Z,30.0600,-84.2910,26.07,1111122 
COMPS,ioos:station:USF.COMPS:SHP:1,2017-08-01T01:48:00Z,30.0600,-84.2910,25.99,1111122 
COMPS,ioos:station:USF.COMPS:SHP:1,2017-08-01T01:54:00Z,30.0600,-84.2910,25.96,1111122 
COMPS,ioos:station:USF.COMPS:SHP:1,2017-08-01T02:00:00Z,30.0600,-84.2910,25.96,1111122 
COMPS,ioos:station:USF.COMPS:SHP:1,2017-08-01T02:06:00Z,30.0600,-84.2910,25.93,1111122 
COMPS,ioos:station:USF.COMPS:SHP:1,2017-08-01T02:12:00Z,30.0600,-84.2910,25.96,1111122 
COMPS,ioos:station:USF.COMPS:SHP:1,2017-08-01T02:18:00Z,30.0600,-84.2910,26.03,1111122 
COMPS,ioos:station:USF.COMPS:SHP:1,2017-08-01T02:24:00Z,30.0600,-84.2910,25.93,1111122 
COMPS,ioos:station:USF.COMPS:SHP:1,2017-08-01T02:30:00Z,30.0600,-84.2910,25.86,1111122 
COMPS,ioos:station:USF.COMPS:SHP:1,2017-08-01T02:36:00Z,30.0600,-84.2910,25.74,1111122 
COMPS,ioos:station:USF.COMPS:SHP:1,2017-08-01T02:42:00Z,30.0600,-84.2910,25.74,1111122 
COMPS,ioos:station:USF.COMPS:SHP:1,2017-08-01T02:48:00Z,30.0600,-84.2910,25.84,1111122 
COMPS,ioos:station:USF.COMPS:SHP:1,2017-08-01T02:54:00Z,30.0600,-84.2910,25.86,1111122 
COMPS,ioos:station:USF.COMPS:SHP:1,2017-08-01T03:00:00Z,30.0600,-84.2910,25.73,1111122 
COMPS,ioos:station:USF.COMPS:SHP:1,2017-08-01T03:06:00Z,30.0600,-84.2910,25.7,1111122 
COMPS,ioos:station:USF.COMPS:SHP:1,2017-08-01T03:12:00Z,30.0600,-84.2910,25.75,1111122 
COMPS,ioos:station:USF.COMPS:SHP:1,2017-08-01T03:18:00Z,30.0600,-84.2910,25.69,1111122 
COMPS,ioos:station:USF.COMPS:SHP:1,2017-08-01T03:24:00Z,30.0600,-84.2910,25.57,1111122 
COMPS,ioos:station:USF.COMPS:SHP:1,2017-08-01T03:30:00Z,30.0600,-84.2910,25.62,1111122 
COMPS,ioos:station:USF.COMPS:SHP:1,2017-08-01T03:36:00Z,30.0600,-84.2910,25.57,1111122 
COMPS,ioos:station:USF.COMPS:SHP:1,2017-08-01T03:42:00Z,30.0600,-84.2910,25.55,1111122 
COMPS,ioos:station:USF.COMPS:SHP:1,2017-08-01T03:48:00Z,30.0600,-84.2910,25.44,1111122 
COMPS,ioos:station:USF.COMPS:SHP:1,2017-08-01T03:54:00Z,30.0600,-84.2910,25.39,1111122 
COMPS,ioos:station:USF.COMPS:SHP:1,2017-08-01T04:00:00Z,30.0600,-84.2910,25.34,1111122 
COMPS,ioos:station:USF.COMPS:SHP:1,2017-08-01T04:06:00Z,30.0600,-84.2910,25.32,1111122 
COMPS,ioos:station:USF.COMPS:SHP:1,2017-08-01T04:12:00Z,30.0600,-84.2910,25.2,1111122 
COMPS,ioos:station:USF.COMPS:SHP:1,2017-08-01T04:18:00Z,30.0600,-84.2910,25.17,1111122 
COMPS,ioos:station:USF.COMPS:SHP:1,2017-08-01T04:24:00Z,30.0600,-84.2910,25.07,1111122 
COMPS,ioos:station:USF.COMPS:SHP:1,2017-08-01T04:30:00Z,30.0600,-84.2910,25.01,1111122 
COMPS,ioos:station:USF.COMPS:SHP:1,2017-08-01T04:36:00Z,30.0600,-84.2910,24.85,1111122 
COMPS,ioos:station:USF.COMPS:SHP:1,2017-08-01T04:42:00Z,30.0600,-84.2910,24.81,1111122 
COMPS,ioos:station:USF.COMPS:SHP:1,2017-08-01T04:48:00Z,30.0600,-84.2910,24.77,1111122 
COMPS,ioos:station:USF.COMPS:SHP:1,2017-08-01T04:54:00Z,30.0600,-84.2910,24.88,1111122 
COMPS,ioos:station:USF.COMPS:SHP:1,2017-08-01T05:00:00Z,30.0600,-84.2910,24.89,1111122 
COMPS,ioos:station:USF.COMPS:SHP:1,2017-08-01T05:06:00Z,30.0600,-84.2910,24.9,1111122 
COMPS,ioos:station:USF.COMPS:SHP:1,2017-08-01T05:12:00Z,30.0600,-84.2910,24.93,1111122 
COMPS,ioos:station:USF.COMPS:SHP:1,2017-08-01T05:18:00Z,30.0600,-84.2910,25.01,1111122 
COMPS,ioos:station:USF.COMPS:SHP:1,2017-08-01T05:24:00Z,30.0600,-84.2910,24.95,1111122 
COMPS,ioos:station:USF.COMPS:SHP:1,2017-08-01T05:30:00Z,30.0600,-84.2910,24.94,1111122 
COMPS,ioos:station:USF.COMPS:SHP:1,2017-08-01T05:36:00Z,30.0600,-84.2910,24.97,1111122 
COMPS,ioos:station:USF.COMPS:SHP:1,2017-08-01T05:42:00Z,30.0600,-84.2910,24.93,1111122 
COMPS,ioos:station:USF.COMPS:SHP:1,2017-08-01T05:48:00Z,30.0600,-84.2910,25.02,1111122 
COMPS,ioos:station:USF.COMPS:SHP:1,2017-08-01T05:54:00Z,30.0600,-84.2910,24.91,1111122 
COMPS,ioos:station:USF.COMPS:SHP:1,2017-08-01T06:00:00Z,30.0600,-84.2910,24.67,1111122 
COMPS,ioos:station:USF.COMPS:SHP:1,2017-08-01T06:06:00Z,30.0600,-84.2910,24.2,1111122 
COMPS,ioos:station:USF.COMPS:SHP:1,2017-08-01T06:12:00Z,30.0600,-84.2910,24.02,1111122 
COMPS,ioos:station:USF.COMPS:SHP:1,2017-08-01T06:18:00Z,30.0600,-84.2910,23.94,1111122 
COMPS,ioos:station:USF.COMPS:SHP:1,2017-08-01T06:24:00Z,30.0600,-84.2910,23.77,1111122 
COMPS,ioos:station:USF.COMPS:SHP:1,2017-08-01T06:30:00Z,30.0600,-84.2910,23.68,1111122 
COMPS,ioos:station:USF.COMPS:SHP:1,2017-08-01T06:36:00Z,30.0600,-84.2910,23.61,1111122 
COMPS,ioos:station:USF.COMPS:SHP:1,2017-08-01T06:42:00Z,30.0600,-84.2910,23.45,1111122 
COMPS,ioos:station:USF.COMPS:SHP:1,2017-08-01T06:48:00Z,30.0600,-84.2910,23.51,1111122 
COMPS,ioos:station:USF.COMPS:SHP:1,2017-08-01T06:54:00Z,30.0600,-84.2910,23.44,1111122 
COMPS,ioos:station:USF.COMPS:SHP:1,2017-08-01T07:00:00Z,30.0600,-84.2910,23.36,1111122 
COMPS,ioos:station:USF.COMPS:SHP:1,2017-08-01T07:06:00Z,30.0600,-84.2910,23.19,1111122 
COMPS,ioos:station:USF.COMPS:SHP:1,2017-08-01T07:12:00Z,30.0600,-84.2910,23.12,1111122 
COMPS,ioos:station:USF.COMPS:SHP:1,2017-08-01T07:18:00Z,30.0600,-84.2910,23.14,1111122 
COMPS,ioos:station:USF.COMPS:SHP:1,2017-08-01T07:24:00Z,30.0600,-84.2910,23.13,1111122 
COMPS,ioos:station:USF.COMPS:SHP:1,2017-08-01T07:30:00Z,30.0600,-84.2910,23.15,1111122 
COMPS,ioos:station:USF.COMPS:SHP:1,2017-08-01T07:36:00Z,30.0600,-84.2910,23.15,1111122 
COMPS,ioos:station:USF.COMPS:SHP:1,2017-08-01T07:42:00Z,30.0600,-84.2910,23.16,1111122 
COMPS,ioos:station:USF.COMPS:SHP:1,2017-08-01T07:48:00Z,30.0600,-84.2910,23.26,1111122 
COMPS,ioos:station:USF.COMPS:SHP:1,2017-08-01T07:54:00Z,30.0600,-84.2910,22.76,1111122 
COMPS,ioos:station:USF.COMPS:SHP:1,2017-08-01T08:00:00Z,30.0600,-84.2910,22.35,1111122 
COMPS,ioos:station:USF.COMPS:SHP:1,2017-08-01T08:06:00Z,30.0600,-84.2910,22.06,1111122 
COMPS,ioos:station:USF.COMPS:SHP:1,2017-08-01T08:12:00Z,30.0600,-84.2910,21.97,1111122 
COMPS,ioos:station:USF.COMPS:SHP:1,2017-08-01T08:18:00Z,30.0600,-84.2910,22.07,1111122 
COMPS,ioos:station:USF.COMPS:SHP:1,2017-08-01T08:24:00Z,30.0600,-84.2910,22.07,1111122 
COMPS,ioos:station:USF.COMPS:SHP:1,2017-08-01T08:30:00Z,30.0600,-84.2910,21.92,1111122 
COMPS,ioos:station:USF.COMPS:SHP:1,2017-08-01T08:36:00Z,30.0600,-84.2910,21.93,1111122 
COMPS,ioos:station:USF.COMPS:SHP:1,2017-08-01T08:42:00Z,30.0600,-84.2910,21.86,1111122 
COMPS,ioos:station:USF.COMPS:SHP:1,2017-08-01T08:48:00Z,30.0600,-84.2910,21.59,1111122 
COMPS,ioos:station:USF.COMPS:SHP:1,2017-08-01T08:54:00Z,30.0600,-84.2910,21.6,1111122 
COMPS,ioos:station:USF.COMPS:SHP:1,2017-08-01T09:00:00Z,30.0600,-84.2910,21.71,1111122 
COMPS,ioos:station:USF.COMPS:SHP:1,2017-08-01T09:06:00Z,30.0600,-84.2910,21.71,1111122 
COMPS,ioos:station:USF.COMPS:SHP:1,2017-08-01T09:12:00Z,30.0600,-84.2910,21.49,1111122 
COMPS,ioos:station:USF.COMPS:SHP:1,2017-08-01T09:18:00Z,30.0600,-84.2910,21.18,1111122 
COMPS,ioos:station:USF.COMPS:SHP:1,2017-08-01T09:24:00Z,30.0600,-84.2910,20.84,1111122 
COMPS,ioos:station:USF.COMPS:SHP:1,2017-08-01T09:30:00Z,30.0600,-84.2910,20.84,1111122 
COMPS,ioos:station:USF.COMPS:SHP:1,2017-08-01T09:36:00Z,30.0600,-84.2910,20.89,1111122 
COMPS,ioos:station:USF.COMPS:SHP:1,2017-08-01T09:42:00Z,30.0600,-84.2910,20.81,1111122 
COMPS,ioos:station:USF.COMPS:SHP:1,2017-08-01T09:48:00Z,30.0600,-84.2910,20.86,1111122 
COMPS,ioos:station:USF.COMPS:SHP:1,2017-08-01T09:54:00Z,30.0600,-84.2910,20.92,1111122 
COMPS,ioos:station:USF.COMPS:SHP:1,2017-08-01T10:00:00Z,30.0600,-84.2910,21.13,1111122 
COMPS,ioos:station:USF.COMPS:SHP:1,2017-08-01T10:06:00Z,30.0600,-84.2910,21.06,1111122 
COMPS,ioos:station:USF.COMPS:SHP:1,2017-08-01T10:12:00Z,30.0600,-84.2910,20.94,1111122 
COMPS,ioos:station:USF.COMPS:SHP:1,2017-08-01T10:18:00Z,30.0600,-84.2910,20.94,1111122 
COMPS,ioos:station:USF.COMPS:SHP:1,2017-08-01T10:24:00Z,30.0600,-84.2910,21.2,1111122 
COMPS,ioos:station:USF.COMPS:SHP:1,2017-08-01T10:30:00Z,30.0600,-84.2910,21.21,1111122 
COMPS,ioos:station:USF.COMPS:SHP:1,2017-08-01T10:36:00Z,30.0600,-84.2910,20.86,1111122 
COMPS,ioos:station:USF.COMPS:SHP:1,2017-08-01T10:42:00Z,30.0600,-84.2910,20.7,1111122 
COMPS,ioos:station:USF.COMPS:SHP:1,2017-08-01T10:48:00Z,30.0600,-84.2910,20.57,1111122 
COMPS,ioos:station:USF.COMPS:SHP:1,2017-08-01T10:54:00Z,30.0600,-84.2910,20.41,1111122 
COMPS,ioos:station:USF.COMPS:SHP:1,2017-08-01T11:00:00Z,30.0600,-84.2910,20.07,1111122 
COMPS,ioos:station:USF.COMPS:SHP:1,2017-08-01T11:06:00Z,30.0600,-84.2910,20.03,1111122 
COMPS,ioos:station:USF.COMPS:SHP:1,2017-08-01T11:12:00Z,30.0600,-84.2910,19.81,1111122 
COMPS,ioos:station:USF.COMPS:SHP:1,2017-08-01T11:18:00Z,30.0600,-84.2910,19.55,1111122 
COMPS,ioos:station:USF.COMPS:SHP:1,2017-08-01T11:24:00Z,30.0600,-84.2910,19.59,1111122 
COMPS,ioos:station:USF.COMPS:SHP:1,2017-08-01T11:30:00Z,30.0600,-84.2910,19.65,1111122 
COMPS,ioos:station:USF.COMPS:SHP:1,2017-08-01T11:36:00Z,30.0600,-84.2910,19.77,1111122 
COMPS,ioos:station:USF.COMPS:SHP:1,2017-08-01T11:42:00Z,30.0600,-84.2910,20.18,1111122 
COMPS,ioos:station:USF.COMPS:SHP:1,2017-08-01T11:48:00Z,30.0600,-84.2910,20.51,1111122 
COMPS,ioos:station:USF.COMPS:SHP:1,2017-08-01T11:54:00Z,30.0600,-84.2910,20.93,1111122 
COMPS,ioos:station:USF.COMPS:SHP:1,2017-08-01T12:00:00Z,30.0600,-84.2910,21.25,1111122 
COMPS,ioos:station:USF.COMPS:SHP:1,2017-08-01T12:06:00Z,30.0600,-84.2910,21.52,1111122 
COMPS,ioos:station:USF.COMPS:SHP:1,2017-08-01T12:12:00Z,30.0600,-84.2910,21.88,1111122 
COMPS,ioos:station:USF.COMPS:SHP:1,2017-08-01T12:18:00Z,30.0600,-84.2910,22.23,1111122 
COMPS,ioos:station:USF.COMPS:SHP:1,2017-08-01T12:24:00Z,30.0600,-84.2910,22.64,1111122 
COMPS,ioos:station:USF.COMPS:SHP:1,2017-08-01T12:30:00Z,30.0600,-84.2910,22.85,1111122 
COMPS,ioos:station:USF.COMPS:SHP:1,2017-08-01T12:36:00Z,30.0600,-84.2910,22.88,1111122 
COMPS,ioos:station:USF.COMPS:SHP:1,2017-08-01T12:42:00Z,30.0600,-84.2910,23.02,1111122 
COMPS,ioos:station:USF.COMPS:SHP:1,2017-08-01T12:48:00Z,30.0600,-84.2910,23.13,1111122 
COMPS,ioos:station:USF.COMPS:SHP:1,2017-08-01T12:54:00Z,30.0600,-84.2910,23.33,1111122 
COMPS,ioos:station:USF.COMPS:SHP:1,2017-08-01T13:00:00Z,30.0600,-84.2910,23.29,1111122 
COMPS,ioos:station:USF.COMPS:SHP:1,2017-08-01T13:06:00Z,30.0600,-84.2910,23.56,1111122 
COMPS,ioos:station:USF.COMPS:SHP:1,2017-08-01T13:12:00Z,30.0600,-84.2910,23.73,1111122 
COMPS,ioos:station:USF.COMPS:SHP:1,2017-08-01T13:18:00Z,30.0600,-84.2910,23.95,1111122 
COMPS,ioos:station:USF.COMPS:SHP:1,2017-08-01T13:24:00Z,30.0600,-84.2910,24.16,1111122 
COMPS,ioos:station:USF.COMPS:SHP:1,2017-08-01T13:30:00Z,30.0600,-84.2910,24.47,1111122 
COMPS,ioos:station:USF.COMPS:SHP:1,2017-08-01T13:36:00Z,30.0600,-84.2910,24.82,1111122 
COMPS,ioos:station:USF.COMPS:SHP:1,2017-08-01T13:42:00Z,30.0600,-84.2910,24.8,1111122 
COMPS,ioos:station:USF.COMPS:SHP:1,2017-08-01T13:48:00Z,30.0600,-84.2910,25.08,1111122 
COMPS,ioos:station:USF.COMPS:SHP:1,2017-08-01T13:54:00Z,30.0600,-84.2910,25.39,1111122 
COMPS,ioos:station:USF.COMPS:SHP:1,2017-08-01T14:00:00Z,30.0600,-84.2910,25.88,1111122 
COMPS,ioos:station:USF.COMPS:SHP:1,2017-08-01T14:06:00Z,30.0600,-84.2910,26.27,1111122 
COMPS,ioos:station:USF.COMPS:SHP:1,2017-08-01T14:12:00Z,30.0600,-84.2910,26.43,1111122 
COMPS,ioos:station:USF.COMPS:SHP:1,2017-08-01T14:18:00Z,30.0600,-84.2910,26.64,1111122 
COMPS,ioos:station:USF.COMPS:SHP:1,2017-08-01T14:24:00Z,30.0600,-84.2910,26.6,1111122 
COMPS,ioos:station:USF.COMPS:SHP:1,2017-08-01T14:30:00Z,30.0600,-84.2910,26.72,1111122 
COMPS,ioos:station:USF.COMPS:SHP:1,2017-08-01T14:36:00Z,30.0600,-84.2910,26.88,1111122 
COMPS,ioos:station:USF.COMPS:SHP:1,2017-08-01T14:42:00Z,30.0600,-84.2910,26.84,1111122 
COMPS,ioos:station:USF.COMPS:SHP:1,2017-08-01T14:48:00Z,30.0600,-84.2910,26.95,1111122 
COMPS,ioos:station:USF.COMPS:SHP:1,2017-08-01T14:54:00Z,30.0600,-84.2910,27.17,1111122 
COMPS,ioos:station:USF.COMPS:SHP:1,2017-08-01T15:00:00Z,30.0600,-84.2910,27.46,1111122 
COMPS,ioos:station:USF.COMPS:SHP:1,2017-08-01T15:06:00Z,30.0600,-84.2910,27.66,1111122 
COMPS,ioos:station:USF.COMPS:SHP:1,2017-08-01T15:12:00Z,30.0600,-84.2910,27.52,1111122 
COMPS,ioos:station:USF.COMPS:SHP:1,2017-08-01T15:18:00Z,30.0600,-84.2910,27.83,1111122 
COMPS,ioos:station:USF.COMPS:SHP:1,2017-08-01T15:24:00Z,30.0600,-84.2910,27.58,1111122 
COMPS,ioos:station:USF.COMPS:SHP:1,2017-08-01T15:30:00Z,30.0600,-84.2910,27.51,1111122 
COMPS,ioos:station:USF.COMPS:SHP:1,2017-08-01T15:36:00Z,30.0600,-84.2910,27.52,1111122 
COMPS,ioos:station:USF.COMPS:SHP:1,2017-08-01T15:42:00Z,30.0600,-84.2910,27.63,1111122 
COMPS,ioos:station:USF.COMPS:SHP:1,2017-08-01T15:48:00Z,30.0600,-84.2910,27.67,1111122 
COMPS,ioos:station:USF.COMPS:SHP:1,2017-08-01T15:54:00Z,30.0600,-84.2910,27.7,1111122 
COMPS,ioos:station:USF.COMPS:SHP:1,2017-08-01T16:00:00Z,30.0600,-84.2910,27.66,1111122 
COMPS,ioos:station:USF.COMPS:SHP:1,2017-08-01T16:06:00Z,30.0600,-84.2910,27.69,1111122 
COMPS,ioos:station:USF.COMPS:SHP:1,2017-08-01T16:12:00Z,30.0600,-84.2910,27.58,1111122 
COMPS,ioos:station:USF.COMPS:SHP:1,2017-08-01T16:18:00Z,30.0600,-84.2910,27.46,1111122 
COMPS,ioos:station:USF.COMPS:SHP:1,2017-08-01T16:24:00Z,30.0600,-84.2910,27.52,1111122 
COMPS,ioos:station:USF.COMPS:SHP:1,2017-08-01T16:30:00Z,30.0600,-84.2910,27.69,1111122 
COMPS,ioos:station:USF.COMPS:SHP:1,2017-08-01T16:36:00Z,30.0600,-84.2910,27.72,1111122 
COMPS,ioos:station:USF.COMPS:SHP:1,2017-08-01T16:42:00Z,30.0600,-84.2910,27.61,1111122 
COMPS,ioos:station:USF.COMPS:SHP:1,2017-08-01T16:48:00Z,30.0600,-84.2910,27.79,1111122 
COMPS,ioos:station:USF.COMPS:SHP:1,2017-08-01T16:54:00Z,30.0600,-84.2910,27.91,1111122 
COMPS,ioos:station:USF.COMPS:SHP:1,2017-08-01T17:00:00Z,30.0600,-84.2910,27.95,1111122 
COMPS,ioos:station:USF.COMPS:SHP:1,2017-08-01T17:06:00Z,30.0600,-84.2910,28.01,1111122 
COMPS,ioos:station:USF.COMPS:SHP:1,2017-08-01T17:12:00Z,30.0600,-84.2910,28.12,1111122 
COMPS,ioos:station:USF.COMPS:SHP:1,2017-08-01T17:18:00Z,30.0600,-84.2910,28.2,1111122 
COMPS,ioos:station:USF.COMPS:SHP:1,2017-08-01T17:24:00Z,30.0600,-84.2910,28.13,1111122 
COMPS,ioos:station:USF.COMPS:SHP:1,2017-08-01T17:30:00Z,30.0600,-84.2910,28.15,1111122 
COMPS,ioos:station:USF.COMPS:SHP:1,2017-08-01T17:36:00Z,30.0600,-84.2910,28.5,1111122 
COMPS,ioos:station:USF.COMPS:SHP:1,2017-08-01T17:42:00Z,30.0600,-84.2910,28.43,1111122 
COMPS,ioos:station:USF.COMPS:SHP:1,2017-08-01T17:48:00Z,30.0600,-84.2910,28.49,1111122 
COMPS,ioos:station:USF.COMPS:SHP:1,2017-08-01T17:54:00Z,30.0600,-84.2910,28.59,1111122 
COMPS,ioos:station:USF.COMPS:SHP:1,2017-08-01T18:00:00Z,30.0600,-84.2910,28.6,1111122 
COMPS,ioos:station:USF.COMPS:SHP:1,2017-08-01T18:06:00Z,30.0600,-84.2910,28.58,1111122 
COMPS,ioos:station:USF.COMPS:SHP:1,2017-08-01T18:12:00Z,30.0600,-84.2910,28.63,1111122 
COMPS,ioos:station:USF.COMPS:SHP:1,2017-08-01T18:18:00Z,30.0600,-84.2910,28.58,1111122 
COMPS,ioos:station:USF.COMPS:SHP:1,2017-08-01T18:24:00Z,30.0600,-84.2910,28.63,1111122 
COMPS,ioos:station:USF.COMPS:SHP:1,2017-08-01T18:30:00Z,30.0600,-84.2910,28.84,1111122 
COMPS,ioos:station:USF.COMPS:SHP:1,2017-08-01T18:36:00Z,30.0600,-84.2910,28.84,1111122 
COMPS,ioos:station:USF.COMPS:SHP:1,2017-08-01T18:42:00Z,30.0600,-84.2910,28.93,1111122 
COMPS,ioos:station:USF.COMPS:SHP:1,2017-08-01T18:48:00Z,30.0600,-84.2910,29.04,1111122 
COMPS,ioos:station:USF.COMPS:SHP:1,2017-08-01T18:54:00Z,30.0600,-84.2910,29.3,1111122 
COMPS,ioos:station:USF.COMPS:SHP:1,2017-08-01T19:00:00Z,30.0600,-84.2910,29.4,1111122 
COMPS,ioos:station:USF.COMPS:SHP:1,2017-08-01T19:06:00Z,30.0600,-84.2910,29.22,1111122 
COMPS,ioos:station:USF.COMPS:SHP:1,2017-08-01T19:12:00Z,30.0600,-84.2910,29.06,1111122 
COMPS,ioos:station:USF.COMPS:SHP:1,2017-08-01T19:18:00Z,30.0600,-84.2910,29.25,1111122 
COMPS,ioos:station:USF.COMPS:SHP:1,2017-08-01T19:24:00Z,30.0600,-84.2910,29.38,1111122 
COMPS,ioos:station:USF.COMPS:SHP:1,2017-08-01T19:30:00Z,30.0600,-84.2910,29.38,1111122 
COMPS,ioos:station:USF.COMPS:SHP:1,2017-08-01T19:36:00Z,30.0600,-84.2910,29.63,1111122 
COMPS,ioos:station:USF.COMPS:SHP:1,2017-08-01T19:42:00Z,30.0600,-84.2910,29.7,1111122 
COMPS,ioos:station:USF.COMPS:SHP:1,2017-08-01T19:48:00Z,30.0600,-84.2910,29.76,1111122 
COMPS,ioos:station:USF.COMPS:SHP:1,2017-08-01T19:54:00Z,30.0600,-84.2910,29.74,1111122 
COMPS,ioos:station:USF.COMPS:SHP:1,2017-08-01T20:00:00Z,30.0600,-84.2910,29.7,1111122 
COMPS,ioos:station:USF.COMPS:SHP:1,2017-08-01T20:06:00Z,30.0600,-84.2910,29.74,1111122 
COMPS,ioos:station:USF.COMPS:SHP:1,2017-08-01T20:12:00Z,30.0600,-84.2910,29.64,1111122 
COMPS,ioos:station:USF.COMPS:SHP:1,2017-08-01T20:18:00Z,30.0600,-84.2910,29.71,1111122 
COMPS,ioos:station:USF.COMPS:SHP:1,2017-08-01T20:24:00Z,30.0600,-84.2910,29.75,1111122 
COMPS,ioos:station:USF.COMPS:SHP:1,2017-08-01T20:30:00Z,30.0600,-84.2910,29.81,1111122 
COMPS,ioos:station:USF.COMPS:SHP:1,2017-08-01T20:36:00Z,30.0600,-84.2910,29.95,1111122 
COMPS,ioos:station:USF.COMPS:SHP:1,2017-08-01T20:42:00Z,30.0600,-84.2910,29.96,1111122 
COMPS,ioos:station:USF.COMPS:SHP:1,2017-08-01T20:48:00Z,30.0600,-84.2910,29.97,1111122 
COMPS,ioos:station:USF.COMPS:SHP:1,2017-08-01T20:54:00Z,30.0600,-84.2910,30.07,1111122 
COMPS,ioos:station:USF.COMPS:SHP:1,2017-08-01T21:00:00Z,30.0600,-84.2910,29.82,1111122 
COMPS,ioos:station:USF.COMPS:SHP:1,2017-08-01T21:06:00Z,30.0600,-84.2910,30.13,1111122 
COMPS,ioos:station:USF.COMPS:SHP:1,2017-08-01T21:12:00Z,30.0600,-84.2910,30.46,1111122 
COMPS,ioos:station:USF.COMPS:SHP:1,2017-08-01T21:18:00Z,30.0600,-84.2910,30.54,1111122 
COMPS,ioos:station:USF.COMPS:SHP:1,2017-08-01T21:24:00Z,30.0600,-84.2910,30.54,1111122 
COMPS,ioos:station:USF.COMPS:SHP:1,2017-08-01T21:30:00Z,30.0600,-84.2910,30.6,1111122 
COMPS,ioos:station:USF.COMPS:SHP:1,2017-08-01T21:36:00Z,30.0600,-84.2910,30.59,1111122 
COMPS,ioos:station:USF.COMPS:SHP:1,2017-08-01T21:42:00Z,30.0600,-84.2910,30.52,1111122 
COMPS,ioos:station:USF.COMPS:SHP:1,2017-08-01T21:48:00Z,30.0600,-84.2910,30.54,1111122 
COMPS,ioos:station:USF.COMPS:SHP:1,2017-08-01T21:54:00Z,30.0600,-84.2910,30.53,1111122 
COMPS,ioos:station:USF.COMPS:SHP:1,2017-08-01T22:00:00Z,30.0600,-84.2910,30.66,1111122 
COMPS,ioos:station:USF.COMPS:SHP:1,2017-08-01T22:06:00Z,30.0600,-84.2910,30.39,1111122 
COMPS,ioos:station:USF.COMPS:SHP:1,2017-08-01T22:12:00Z,30.0600,-84.2910,30.56,1111122 
COMPS,ioos:station:USF.COMPS:SHP:1,2017-08-01T22:18:00Z,30.0600,-84.2910,30.72,1111122 
COMPS,ioos:station:USF.COMPS:SHP:1,2017-08-01T22:24:00Z,30.0600,-84.2910,30.58,1111122 
COMPS,ioos:station:USF.COMPS:SHP:1,2017-08-01T22:30:00Z,30.0600,-84.2910,30.29,1111122 
COMPS,ioos:station:USF.COMPS:SHP:1,2017-08-01T22:36:00Z,30.0600,-84.2910,30.07,1111122 
COMPS,ioos:station:USF.COMPS:SHP:1,2017-08-01T22:42:00Z,30.0600,-84.2910,30.07,1111122 
COMPS,ioos:station:USF.COMPS:SHP:1,2017-08-01T22:48:00Z,30.0600,-84.2910,30.56,1111122 
COMPS,ioos:station:USF.COMPS:SHP:1,2017-08-01T22:54:00Z,30.0600,-84.2910,30.61,1111122 
COMPS,ioos:station:USF.COMPS:SHP:1,2017-08-01T23:00:00Z,30.0600,-84.2910,30.61,1111122 
COMPS,ioos:station:USF.COMPS:SHP:1,2017-08-01T23:06:00Z,30.0600,-84.2910,30.31,1111122 
COMPS,ioos:station:USF.COMPS:SHP:1,2017-08-01T23:12:00Z,30.0600,-84.2910,30.49,1111122 
COMPS,ioos:station:USF.COMPS:SHP:1,2017-08-01T23:18:00Z,30.0600,-84.2910,30.64,1111122 
COMPS,ioos:station:USF.COMPS:SHP:1,2017-08-01T23:24:00Z,30.0600,-84.2910,30.67,1111122 
COMPS,ioos:station:USF.COMPS:SHP:1,2017-08-01T23:30:00Z,30.0600,-84.2910,30.65,1111122 
COMPS,ioos:station:USF.COMPS:SHP:1,2017-08-01T23:36:00Z,30.0600,-84.2910,30.43,1111122 
COMPS,ioos:station:USF.COMPS:SHP:1,2017-08-01T23:42:00Z,30.0600,-84.2910,30.21,1111122 
COMPS,ioos:station:USF.COMPS:SHP:1,2017-08-01T23:48:00Z,30.0600,-84.2910,30.07,1111122 
COMPS,ioos:station:USF.COMPS:SHP:1,2017-08-01T23:54:00Z,30.0600,-84.2910,30.01,1111122 
COMPS,ioos:station:USF.COMPS:SHP:1,2017-08-02T00:00:00Z,30.0600,-84.2910,29.94,1111122 
COMPS,ioos:station:USF.COMPS:SHP:1,2017-08-02T00:06:00Z,30.0600,-84.2910,29.74,1111122 
COMPS,ioos:station:USF.COMPS:SHP:1,2017-08-02T00:12:00Z,30.0600,-84.2910,29.47,1111122 
COMPS,ioos:station:USF.COMPS:SHP:1,2017-08-02T00:18:00Z,30.0600,-84.2910,29.34,1111122 
COMPS,ioos:station:USF.COMPS:SHP:1,2017-08-02T00:24:00Z,30.0600,-84.2910,29.18,1111122 
COMPS,ioos:station:USF.COMPS:SHP:1,2017-08-02T00:30:00Z,30.0600,-84.2910,28.99,1111122 
COMPS,ioos:station:USF.COMPS:SHP:1,2017-08-02T00:36:00Z,30.0600,-84.2910,28.84,1111122 
COMPS,ioos:station:USF.COMPS:SHP:1,2017-08-02T00:42:00Z,30.0600,-84.2910,28.66,1111122 
COMPS,ioos:station:USF.COMPS:SHP:1,2017-08-02T00:48:00Z,30.0600,-84.2910,28.6,1111122 
COMPS,ioos:station:USF.COMPS:SHP:1,2017-08-02T00:54:00Z,30.0600,-84.2910,28.52,1111122 
COMPS,ioos:station:USF.COMPS:SHP:1,2017-08-02T01:00:00Z,30.0600,-84.2910,28.38,1111122 
COMPS,ioos:station:USF.COMPS:SHP:1,2017-08-02T01:06:00Z,30.0600,-84.2910,28.21,1111122 
COMPS,ioos:station:USF.COMPS:SHP:1,2017-08-02T01:12:00Z,30.0600,-84.2910,28.15,1111122 
COMPS,ioos:station:USF.COMPS:SHP:1,2017-08-02T01:18:00Z,30.0600,-84.2910,28.1,1111122 
COMPS,ioos:station:USF.COMPS:SHP:1,2017-08-02T01:24:00Z,30.0600,-84.2910,27.99,1111122 
COMPS,ioos:station:USF.COMPS:SHP:1,2017-08-02T01:30:00Z,30.0600,-84.2910,27.97,1111122 
COMPS,ioos:station:USF.COMPS:SHP:1,2017-08-02T01:36:00Z,30.0600,-84.2910,27.95,1111122 
COMPS,ioos:station:USF.COMPS:SHP:1,2017-08-02T01:42:00Z,30.0600,-84.2910,27.94,1111122 
COMPS,ioos:station:USF.COMPS:SHP:1,2017-08-02T01:48:00Z,30.0600,-84.2910,27.76,1111122 
COMPS,ioos:station:USF.COMPS:SHP:1,2017-08-02T01:54:00Z,30.0600,-84.2910,27.47,1111122 
COMPS,ioos:station:USF.COMPS:SHP:1,2017-08-02T02:00:00Z,30.0600,-84.2910,27.35,1111122 
COMPS,ioos:station:USF.COMPS:SHP:1,2017-08-02T02:06:00Z,30.0600,-84.2910,27.3,1111122 
COMPS,ioos:station:USF.COMPS:SHP:1,2017-08-02T02:12:00Z,30.0600,-84.2910,27.22,1111122 
COMPS,ioos:station:USF.COMPS:SHP:1,2017-08-02T02:18:00Z,30.0600,-84.2910,27.16,1111122 
COMPS,ioos:station:USF.COMPS:SHP:1,2017-08-02T02:24:00Z,30.0600,-84.2910,27.2,1111122 
COMPS,ioos:station:USF.COMPS:SHP:1,2017-08-02T02:30:00Z,30.0600,-84.2910,27.23,1111122 
COMPS,ioos:station:USF.COMPS:SHP:1,2017-08-02T02:36:00Z,30.0600,-84.2910,27.17,1111122 
COMPS,ioos:station:USF.COMPS:SHP:1,2017-08-02T02:42:00Z,30.0600,-84.2910,27.12,1111122 
COMPS,ioos:station:USF.COMPS:SHP:1,2017-08-02T02:48:00Z,30.0600,-84.2910,27.02,1111122 
COMPS,ioos:station:USF.COMPS:SHP:1,2017-08-02T02:54:00Z,30.0600,-84.2910,27.0,1111122 
COMPS,ioos:station:USF.COMPS:SHP:1,2017-08-02T03:00:00Z,30.0600,-84.2910,27.06,1111122 
COMPS,ioos:station:USF.COMPS:SHP:1,2017-08-02T03:06:00Z,30.0600,-84.2910,27.26,1111122 